Theta_e
295 295 294 294 293 293 292 292 292 291 291 290 289 288 287 285 284 283 282 282 281 281 280 280 279 278 278 277 277 277 277 277 277 278 279 278 277 277 277 277 277 276 276
296 294 294 293 293 292 292 292 291 291 290 290 289 288 286 285 284 282 281 281 281 280 279 278 278 277 277 276 276 276 276 276 276 276 277 276 276 276 276 276 276 276 276
295 294 293 293 292 292 291 291 291 290 290 289 288 287 286 284 283 281 281 280 280 279 278 277 277 276 276 275 275 275 275 275 275 275 276 276 276 276 276 276 276 277 277
295 294 293 292 292 291 290 290 290 289 289 288 287 287 286 284 282 281 280 279 279 278 277 277 276 276 276 275 275 275 275 275 275 275 275 276 276 277 277 277 277 277 277
295 293 292 292 290 290 289 289 289 288 289 289 287 285 284 282 281 280 279 278 278 277 276 276 276 276 276 276 276 276 276 276 276 276 277 277 277 277 278 278 277 277 277
293 292 292 290 289 288 287 287 287 287 286 286 285 283 282 281 280 279 279 278 277 276 276 277 276 276 275 276 277 277 277 278 277 277 278 278 277 277 278 277 277 276 276
293 292 291 289 287 286 285 285 284 284 284 283 282 281 280 279 279 279 277 277 276 277 277 276 276 276 275 275 275 276 277 276 277 277 278 277 277 276 276 276 276 276 276
292 291 289 288 286 285 283 282 282 282 282 280 280 279 279 279 279 279 279 278 277 277 276 276 275 275 275 275 276 276 276 276 276 276 276 276 276 276 276 277 277 278 278
290 290 288 286 284 282 281 281 280 280 279 279 279 279 279 279 279 279 279 277 276 276 276 275 275 275 275 276 276 276 276 276 276 276 275 275 276 276 275 274 274 274 274
288 287 285 285 283 281 281 280 279 279 278 278 277 277 277 277 278 279 278 277 276 275 275 275 275 275 275 276 276 277 276 275 274 274 275 273 272 270 271 272 272 273 274
287 287 285 283 282 281 280 279 278 278 277 276 276 276 276 276 277 278 278 275 275 275 275 275 275 274 275 276 276 276 274 274 275 272 270 270 270 270 270 271 272 272 273
286 285 283 282 281 280 279 277 277 276 276 275 275 274 274 275 275 277 278 277 276 275 275 274 274 274 275 274 274 273 274 274 271 269 269 269 270 270 271 271 271 272 272
283 282 281 280 279 278 277 276 276 276 276 274 274 274 273 273 273 276 277 277 277 276 275 274 274 273 272 272 271 272 271 269 268 268 269 269 270 270 270 270 271 272 272
281 280 279 279 277 277 276 276 276 275 275 274 274 273 273 273 273 275 276 276 276 275 273 273 271 270 270 270 270 269 269 268 268 268 269 269 269 270 270 271 272 272 272
281 280 278 277 276 276 276 275 276 275 276 275 274 274 274 273 272 273 274 274 274 273 272 271 270 269 269 268 268 268 268 268 268 268 268 268 269 269 269 271 272 272 271
280 278 276 276 275 275 275 274 276 275 276 276 275 274 274 274 273 274 274 274 274 272 271 269 268 267 266 266 266 267 267 267 267 267 268 268 269 269 269 272 272 271 271
280 278 276 276 274 274 274 274 274 275 276 276 276 275 274 275 276 277 276 275 273 270 269 267 266 266 266 265 265 265 265 266 266 266 267 267 268 269 270 272 271 271 270
280 280 276 275 274 274 274 274 274 274 276 276 276 275 275 276 276 276 275 272 270 267 267 267 266 265 266 265 265 264 265 265 264 265 266 266 268 269 271 271 271 270 270
279 278 276 275 274 273 273 273 274 275 276 275 275 275 276 276 276 275 272 268 267 267 266 266 265 266 266 265 265 264 265 264 264 264 265 266 268 270 270 270 270 270 270
278 278 274 274 273 273 273 273 274 275 275 274 275 274 274 275 273 268 267 267 267 267 266 266 266 266 266 266 265 264 265 264 264 264 265 267 268 270 270 270 270 270 270
276 276 274 272 272 272 273 273 274 274 272 273 271 270 273 271 267 267 265 266 266 266 265 266 266 266 266 266 266 265 264 266 265 264 265 266 269 269 269 269 269 269 269
275 274 272 272 271 271 272 272 272 270 271 268 267 270 271 269 268 265 264 265 265 266 266 266 266 266 266 266 266 265 266 267 265 264 265 266 269 269 268 268 269 269 269
273 272 271 271 271 271 270 270 269 268 267 266 267 270 266 266 265 264 264 264 265 265 266 266 266 266 266 267 266 266 266 268 267 266 265 268 269 268 268 268 268 268 269
271 270 269 269 269 269 268 268 267 266 266 266 265 264 263 263 263 263 263 264 265 265 265 265 265 266 266 267 267 268 268 269 269 269 267 269 268 267 267 267 267 268 268
268 268 267 267 267 267 266 265 265 265 265 264 262 262 262 263 263 263 263 263 264 264 264 264 265 266 266 267 267 268 268 270 270 269 270 270 268 267 267 266 267 267 268
266 266 266 266 265 265 264 264 263 263 263 262 262 262 262 262 262 262 263 263 263 263 264 264 264 265 266 267 268 268 269 269 270 270 270 270 267 266 266 266 266 267 267
Wind_Speed
41 42 39 44 46 45 46 45 45 42 40 39 40 40 38 35 32 29 25 21 19 16 14 13 12 12 14 16 17 18 19 19 15 40 23 27 28 33 36 34 35 38 38
45 41 45 42 44 42 46 47 45 43 40 40 40 40 39 36 33 30 27 24 20 18 15 14 13 13 14 16 18 19 20 20 22 32 36 30 32 33 36 39 38 38 39
38 41 39 41 44 46 46 47 45 42 40 40 41 42 41 38 34 31 27 24 21 18 16 15 13 13 16 17 17 19 18 18 20 27 44 34 34 34 38 38 40 40 40
38 39 40 44 49 46 43 44 43 42 41 42 44 43 42 40 36 32 28 24 22 20 17 16 15 15 17 16 15 17 17 19 21 27 35 41 35 36 36 38 39 37 41
38 37 40 42 40 40 42 43 42 42 43 45 46 43 42 40 37 33 28 25 23 19 15 13 14 14 14 14 15 17 18 21 21 26 31 35 36 35 32 36 40 44 43
33 36 35 35 38 39 40 41 41 42 44 45 45 44 41 37 34 29 27 25 22 18 16 13 12 14 16 15 15 17 20 23 24 26 28 30 41 37 39 40 41 37 21
34 32 34 35 35 37 37 37 39 42 44 43 42 41 39 36 28 24 22 24 21 18 14 12 10 10 14 15 14 17 22 25 29 33 35 34 42 40 43 45 42 41 44
27 27 32 34 33 34 35 35 34 38 42 41 40 40 37 35 26 25 24 22 18 16 15 10 11 14 13 13 17 21 24 27 28 30 34 37 39 40 40 43 47 45 46
22 27 31 32 31 33 33 34 35 36 35 38 41 42 41 37 28 27 25 21 18 15 10 10 11 15 13 15 19 23 25 27 27 29 36 39 39 43 48 46 40 33 24
12 15 22 27 29 30 31 32 33 33 31 30 29 31 33 34 27 26 25 25 22 15 10 10 12 15 16 17 19 21 24 25 28 31 29 34 37 36 34 33 35 31 29
9 15 18 22 23 24 26 27 30 29 28 28 28 29 31 30 28 26 24 26 22 16 13 12 13 11 14 17 21 23 23 26 27 28 33 30 30 30 30 30 32 34 35
9 11 16 19 22 25 28 26 29 29 28 25 26 25 29 32 31 26 27 22 19 17 16 13 10 7 14 16 18 19 22 23 28 27 26 28 28 30 31 32 37 40 41
12 17 18 19 22 26 28 27 25 26 25 24 25 23 22 28 30 27 28 24 20 17 14 10 7 9 8 10 13 17 19 22 21 22 25 28 29 34 39 40 37 39 43
18 18 19 27 27 29 29 29 26 26 24 23 25 24 22 22 25 25 26 22 18 15 11 11 8 7 3 5 10 14 17 20 21 25 28 31 34 35 37 35 38 37 36
21 19 20 21 24 26 30 32 32 33 37 34 30 30 30 25 28 27 25 24 19 13 12 8 7 3 4 6 12 16 19 21 22 24 27 32 33 34 36 35 36 37 32
19 18 21 21 21 23 21 15 23 24 30 26 23 26 24 20 26 25 21 15 13 12 9 7 3 4 5 8 13 18 21 21 22 25 27 30 32 35 37 36 36 33 29
25 21 21 22 23 23 22 23 17 21 24 27 27 27 26 27 29 24 21 18 15 11 11 9 4 4 7 10 13 17 21 26 26 25 27 30 32 34 35 36 35 32 30
28 25 24 26 24 23 24 25 25 23 21 25 28 32 31 33 29 25 22 19 18 11 11 6 4 3 6 11 16 20 24 28 27 26 29 32 32 33 34 34 34 32 30
27 23 26 23 23 24 24 24 23 24 25 27 31 31 34 34 32 27 23 21 20 15 11 7 4 3 7 12 17 21 24 28 28 30 30 31 33 33 35 35 36 37 36
25 24 24 21 21 22 23 24 24 26 28 28 30 30 31 32 29 30 22 21 19 14 10 7 3 4 8 12 16 20 24 28 29 28 31 32 33 36 35 38 37 34 32
24 22 24 21 22 24 24 25 26 26 26 26 24 30 36 28 29 29 24 21 17 12 9 3 4 6 9 12 16 21 23 28 31 30 31 33 34 35 37 38 39 37 35
22 20 24 22 23 24 24 25 25 25 25 23 25 30 26 30 31 27 23 18 15 12 7 4 6 8 10 13 17 21 25 29 31 29 32 33 36 36 37 39 38 37 34
18 20 20 20 22 24 24 24 25 26 25 27 30 27 28 30 29 25 21 19 15 10 6 6 9 10 10 13 16 20 24 29 33 34 35 33 37 37 38 38 38 36 35
20 21 21 20 20 22 22 22 22 25 26 28 26 26 28 31 28 24 21 16 11 8 7 9 9 11 13 14 16 19 23 27 31 34 33 31 35 37 38 38 37 39 37
19 19 19 20 22 21 22 22 23 23 24 25 23 26 29 28 25 21 16 11 8 7 8 9 10 11 13 15 17 20 22 23 27 33 27 36 35 36 37 37 37 40 38
19 19 18 19 18 20 21 22 22 24 24 25 28 30 30 26 21 16 12 9 6 6 8 8 9 12 13 14 17 21 23 25 29 33 33 36 34 34 36 37 38 37 38
Wind_Direction
216 215 212 216 219 218 223 226 226 225 221 221 218 211 210 208 209 211 213 214 216 221 225 232 243 258 264 266 268 270 262 257 268 291 292 297 298 299 303 305 301 296 292
218 215 218 218 220 216 221 226 226 223 221 219 213 210 208 208 209 212 211 212 213 215 222 228 239 251 256 264 271 264 260 259 268 285 295 298 299 302 299 298 293 286 283
214 218 216 219 221 220 221 223 223 220 217 213 211 208 208 209 209 212 214 214 213 217 222 231 242 248 259 266 268 264 262 268 269 278 290 299 295 299 299 294 289 290 286
222 217 215 216 221 219 216 219 218 216 212 210 210 210 209 209 209 208 208 210 212 215 223 230 237 247 259 264 256 258 264 269 273 276 282 291 296 296 292 293 296 294 290
218 214 216 218 216 213 214 216 215 212 211 210 207 208 209 208 207 205 207 208 211 212 220 230 243 248 252 256 262 268 270 269 272 274 280 288 290 296 293 296 291 293 289
214 215 215 210 209 207 207 208 208 206 205 204 206 207 205 206 208 205 207 208 210 210 214 228 236 254 264 260 264 269 271 275 274 273 281 287 288 290 295 295 292 292 292
216 216 209 203 199 201 201 200 199 197 200 199 204 205 205 206 198 194 196 207 208 211 216 216 239 256 264 276 278 277 275 277 278 281 282 284 289 289 290 290 285 282 280
213 205 204 200 194 192 192 192 191 193 195 193 198 202 202 206 191 192 193 202 209 213 221 234 256 272 276 276 276 278 277 277 276 277 278 282 283 285 283 284 285 283 285
208 206 202 196 187 185 185 185 185 187 187 190 197 199 202 204 189 190 189 198 204 208 221 248 263 268 274 280 283 285 283 281 288 284 286 288 288 289 290 291 287 287 283
214 210 203 197 192 187 185 182 182 187 185 185 188 197 200 201 188 189 188 196 195 201 223 249 259 269 282 282 286 291 290 291 295 294 292 292 291 291 292 282 283 281 283
249 221 207 202 196 191 180 178 176 177 176 177 179 192 202 203 192 191 190 195 195 193 211 228 249 259 278 288 294 292 290 298 301 299 299 293 291 290 291 284 276 275 281
208 204 196 193 192 188 183 175 175 172 168 169 170 177 194 200 199 197 197 199 189 200 204 225 243 256 283 294 297 296 300 303 303 302 294 293 295 296 297 295 287 282 279
201 192 192 192 195 193 182 172 171 174 175 173 175 177 180 192 193 196 196 194 191 197 209 218 233 264 269 295 304 307 304 309 300 295 294 295 298 299 300 298 292 291 286
234 211 194 187 187 190 189 182 180 180 183 183 182 178 174 180 186 193 192 190 192 201 197 206 231 253 257 290 316 320 327 312 298 294 293 299 302 302 300 294 300 300 293
236 224 202 194 191 187 191 190 192 196 191 184 186 176 169 180 189 186 190 191 192 202 200 216 227 251 320 335 321 326 327 308 299 300 302 302 301 301 297 299 302 300 293
220 216 210 197 193 189 192 197 210 200 195 198 195 179 173 180 174 171 176 189 187 188 200 197 223 295 322 327 322 322 317 306 300 304 300 299 298 300 298 303 306 300 296
226 213 211 209 185 185 190 180 175 197 199 191 184 172 170 166 167 168 171 174 180 193 198 192 195 266 320 320 326 312 305 310 307 301 299 302 299 300 299 309 308 303 299
243 229 206 202 196 191 188 185 179 177 177 181 179 163 158 161 161 167 168 168 169 190 199 186 212 273 323 319 322 319 321 317 309 306 304 300 299 303 310 311 310 306 303
239 223 207 204 194 187 181 178 181 178 174 161 154 160 163 162 163 166 170 180 182 185 194 212 232 312 317 320 319 321 324 317 311 307 302 298 305 312 314 312 310 308 304
244 227 201 190 182 178 174 173 176 176 169 166 161 158 162 162 158 154 174 176 182 185 201 222 257 309 319 323 321 323 323 325 320 310 302 301 305 321 318 315 314 311 308
234 212 192 182 181 179 176 177 176 171 169 164 153 159 166 164 155 166 166 178 177 186 205 220 289 308 318 327 327 323 319 330 328 308 302 304 316 323 321 316 314 312 311
225 194 181 180 172 171 171 168 165 161 162 144 144 161 166 168 170 171 172 175 181 194 199 226 279 298 318 325 327 321 327 330 328 315 307 307 324 325 324 319 317 317 316
192 171 167 166 165 164 162 160 159 160 154 146 151 162 166 175 176 173 172 180 186 189 202 240 272 292 309 322 325 328 327 329 332 331 311 311 327 326 325 321 320 319 322
157 154 151 149 148 150 152 153 155 151 149 149 149 154 167 173 172 174 178 177 178 195 219 244 265 288 307 316 327 331 333 335 337 334 322 316 328 325 326 324 323 324 323
129 132 136 142 145 145 142 142 140 140 141 142 143 154 165 167 169 173 171 168 182 215 238 255 268 282 298 314 325 331 333 339 337 338 335 341 331 326 329 328 327 329 328
115 122 129 136 137 137 136 133 134 137 138 143 154 161 166 167 166 167 165 173 200 234 254 268 275 282 295 316 328 330 334 340 340 334 344 343 336 332 334 333 333 335 334